This is the latest recevied weather packets stored in our database for station/object W0SS-13. If no packets are shown the sender has not sent any weather packets the latest 10 day(s).
| Time | Temp. | Humidity | Pressure | Rain* | Wind** | Luminosity | Snow |
|---|---|---|---|---|---|---|---|
| 1777256362 | 17.22° C | 89% | 1006.4 hPa | 0 mm | - | 0 W/m² | - |
| 1777256059 | 17.22° C | 89% | 1006.6 hPa | 0 mm | - | 0 W/m² | - |
| 1777255755 | 17.22° C | 89% | 1006.5 hPa | 0 mm | - | 0 W/m² | - |
| 1777255451 | 17.22° C | 89% | 1006.4 hPa | 1.27 mm | - | 0 W/m² | - |
| 1777255148 | 17.22° C | 88% | 1006.4 hPa | 1.27 mm | - | 0 W/m² | - |
| 1777254844 | 17.22° C | 88% | 1006.6 hPa | 0 mm | - | 0 W/m² | - |
| 1777254542 | 17.22° C | 88% | 1006.3 hPa | 0 mm | - | 0 W/m² | - |
| 1777254238 | 17.22° C | 88% | 1006 hPa | 0 mm | - | 0 W/m² | - |
| 1777253933 | 17.22° C | 87% | 1006.2 hPa | 0 mm | - | 0 W/m² | - |
| 1777253630 | 17.22° C | 87% | 1006.1 hPa | 0 mm | - | 0 W/m² | - |
| 1777253328 | 17.22° C | 87% | 1006.1 hPa | 0 mm | - | 0 W/m² | - |
| 1777253025 | 17.22° C | 87% | 1005.9 hPa | 0 mm | - | 0 W/m² | - |
| 1777252723 | 17.22° C | 87% | 1006.2 hPa | 0 mm | - | 0 W/m² | - |
| 1777252420 | 17.78° C | 86% | 1006.1 hPa | 0 mm | - | 1 W/m² | - |
| 1777252117 | 17.78° C | 86% | 1005.9 hPa | 0 mm | - | 4 W/m² | - |
| 1777251814 | 17.78° C | 86% | 1005.7 hPa | 0 mm | - | 7 W/m² | - |
| 1777251511 | 17.78° C | 86% | 1005.9 hPa | 0 mm | - | 8 W/m² | - |
| 1777251207 | 17.78° C | 86% | 1005.7 hPa | 0 mm | - | 11 W/m² | - |
| 1777250904 | 17.78° C | 86% | 1006 hPa | 0 mm | - | 18 W/m² | - |
| 1777250600 | 17.78° C | 86% | 1005.7 hPa | 0 mm | - | 28 W/m² | - |
| 1777250296 | 17.78° C | 86% | 1005.7 hPa | 0 mm | - | 34 W/m² | - |
| 1777249992 | 18.33° C | 86% | 1005.6 hPa | 0 mm | - | 57 W/m² | - |
| 1777249689 | 18.33° C | 86% | 1005.9 hPa | 0 mm | - | 68 W/m² | - |
| 1777249384 | 17.78° C | 86% | 1005.7 hPa | 0 mm | - | 76 W/m² | - |
| 1777249082 | 17.78° C | 87% | 1005.7 hPa | 0 mm | - | 84 W/m² | - |
* Rain latest hour (hover to see other rain measurements)
** Current wind speed in m/s (hover to see current wind gust speed)